TimeEDT,TemperatureF,Dew PointF,Humidity,Sea Level PressureIn,VisibilityMPH,Wind Direction,Wind SpeedMPH,Gust SpeedMPH,PrecipitationIn,Events,Conditions,WindDirDegrees,DateUTC
12:51 AM,46.9,45.0,93,30.02,10.0,Calm,Calm,-,N/A,,Scattered Clouds,0,2013-05-09 04:51:00
1:51 AM,46.9,45.0,93,30.01,9.0,Calm,Calm,-,N/A,,Partly Cloudy,0,2013-05-09 05:51:00
2:51 AM,48.0,46.0,93,29.99,10.0,Calm,Calm,-,N/A,,Overcast,0,2013-05-09 06:51:00
3:51 AM,48.9,46.0,90,29.98,10.0,Calm,Calm,-,N/A,,Mostly Cloudy,0,2013-05-09 07:51:00
4:29 AM,50.0,46.4,87,29.97,10.0,Calm,Calm,-,N/A,,Overcast,0,2013-05-09 08:29:00
4:51 AM,50.0,48.0,93,29.99,10.0,Calm,Calm,-,0.00,Rain,Light Rain,0,2013-05-09 08:51:00
5:46 AM,51.8,48.2,88,29.96,10.0,Calm,Calm,-,0.00,Rain,Light Rain,0,2013-05-09 09:46:00
5:51 AM,51.1,48.9,92,29.98,10.0,Calm,Calm,-,0.00,,Overcast,0,2013-05-09 09:51:00
6:51 AM,53.1,50.0,89,30.00,10.0,Calm,Calm,-,N/A,,Overcast,0,2013-05-09 10:51:00
7:51 AM,55.9,51.1,84,30.04,10.0,West,4.6,-,N/A,,Overcast,270,2013-05-09 11:51:00
8:00 AM,57.2,51.8,82,30.04,10.0,WNW,4.6,-,0.00,Rain,Light Rain,290,2013-05-09 12:00:00
8:13 AM,57.2,51.8,82,30.04,10.0,West,10.4,-,0.00,,Overcast,270,2013-05-09 12:13:00
8:51 AM,57.0,52.0,83,30.06,10.0,West,3.5,-,0.00,,Overcast,280,2013-05-09 12:51:00
9:17 AM,57.2,51.8,82,30.06,8.0,WNW,3.5,-,0.00,Rain,Light Rain,290,2013-05-09 13:17:00
9:37 AM,55.4,51.8,88,30.07,2.5,West,3.5,-,0.04,Rain,Rain,260,2013-05-09 13:37:00
9:51 AM,55.9,53.1,90,30.08,5.0,Calm,Calm,-,0.07,Rain,Light Rain,0,2013-05-09 13:51:00
10:05 AM,57.2,53.6,88,30.06,10.0,Calm,Calm,-,0.00,,Overcast,0,2013-05-09 14:05:00
10:26 AM,57.2,51.8,82,30.06,10.0,Calm,Calm,-,0.00,,Overcast,0,2013-05-09 14:26:00
10:36 AM,59.0,53.6,82,30.07,10.0,Calm,Calm,-,0.00,Rain,Light Rain,0,2013-05-09 14:36:00
10:51 AM,59.0,53.1,81,30.08,10.0,Calm,Calm,-,0.00,,Overcast,0,2013-05-09 14:51:00
11:51 AM,62.1,52.0,70,30.09,10.0,Calm,Calm,-,N/A,,Overcast,0,2013-05-09 15:51:00
12:20 PM,60.8,53.6,77,30.08,10.0,SE,5.8,-,N/A,,Overcast,130,2013-05-09 16:20:00
12:51 PM,62.1,54.0,75,30.09,10.0,SSE,3.5,-,N/A,,Overcast,150,2013-05-09 16:51:00
1:51 PM,69.1,52.0,54,30.07,10.0,West,10.4,18.4,N/A,,Mostly Cloudy,260,2013-05-09 17:51:00
2:51 PM,71.1,48.9,45,30.06,10.0,NNW,11.5,17.3,N/A,,Clear,340,2013-05-09 18:51:00
3:51 PM,71.1,46.9,42,30.05,10.0,NW,8.1,18.4,N/A,,Clear,310,2013-05-09 19:51:00
4:51 PM,69.1,48.0,47,30.04,10.0,West,3.5,-,N/A,,Mostly Cloudy,270,2013-05-09 20:51:00
5:51 PM,66.0,54.0,65,30.05,10.0,Calm,Calm,-,0.00,,Mostly Cloudy,0,2013-05-09 21:51:00
6:51 PM,63.0,53.1,70,30.05,10.0,SSE,9.2,-,N/A,,Mostly Cloudy,150,2013-05-09 22:51:00
7:51 PM,61.0,52.0,72,30.07,10.0,Calm,Calm,-,N/A,,Clear,0,2013-05-09 23:51:00
8:51 PM,59.0,53.1,81,30.09,10.0,Calm,Calm,-,N/A,,Overcast,0,2013-05-10 00:51:00
9:51 PM,55.4,51.8,88,30.09,10.0,Calm,Calm,-,N/A,,Clear,0,2013-05-10 01:51:00
10:51 PM,53.1,51.1,93,30.09,8.0,Calm,Calm,-,N/A,,Clear,0,2013-05-10 02:51:00
11:51 PM,55.0,51.1,86,30.09,10.0,Calm,Calm,-,N/A,,Clear,0,2013-05-10 03:51:00